Lapse_Rate
6.2 6.5 6.8 7.0 7.2 7.1 6.9 6.8 6.9 6.8 7.0 7.1 7.1 7.2 7.0 7.0 7.1 7.2 7.3 7.2 7.3 7.6 7.8 7.9 7.5 7.9 7.7 7.7 7.8 7.9 8.1 8.2 8.0 7.8 7.8 7.7 7.6 7.8 7.9 8.0 8.0 8.0 7.6 7.2 7.4
6.3 6.3 6.6 6.9 7.0 7.3 7.5 7.2 7.0 7.0 7.0 7.2 7.1 7.0 7.0 7.0 7.0 7.1 7.1 7.2 7.2 7.5 7.7 7.9 7.8 7.7 8.1 8.0 7.9 7.7 8.5 8.3 8.2 8.1 8.1 7.9 7.7 7.9 7.7 7.9 8.1 8.1 8.2 8.0 7.9
6.1 6.3 6.5 6.8 6.9 7.1 7.3 7.4 7.4 7.2 7.0 7.0 7.3 7.2 7.0 6.9 6.9 7.0 7.3 7.0 6.9 7.2 7.9 7.8 7.9 8.1 8.0 7.8 7.9 8.1 8.6 8.5 8.4 8.1 8.0 8.1 7.6 7.6 7.5 7.7 7.6 8.2 8.0 8.0 7.9
6.3 6.2 6.4 6.5 6.8 7.0 7.2 7.5 7.4 7.3 7.1 7.1 7.2 7.4 7.4 7.1 6.8 7.0 7.2 7.3 7.0 7.0 7.5 7.9 7.9 8.2 8.4 8.3 8.2 8.2 8.6 8.6 8.5 8.3 8.0 8.0 8.1 7.8 7.7 8.1 7.9 8.0 8.0 8.0 8.1
6.4 6.4 6.5 6.7 6.7 6.9 7.1 7.5 7.7 7.6 7.2 6.9 7.2 7.3 7.7 7.5 7.0 7.0 6.9 7.2 7.3 7.3 7.1 7.6 7.9 8.0 8.4 8.6 8.4 8.5 8.7 8.7 8.6 8.4 8.4 8.2 8.3 8.1 7.9 7.9 8.1 8.0 8.0 8.1 8.0
6.5 6.5 6.6 6.8 7.0 7.1 7.0 7.3 7.7 7.8 7.8 7.3 7.1 7.4 7.6 7.7 7.3 7.2 7.0 6.9 7.0 7.4 7.4 7.3 7.5 7.7 8.1 8.3 8.7 8.4 8.5 8.8 8.8 8.8 8.8 8.7 8.4 8.7 8.3 8.6 8.5 8.2 8.0 8.1 8.0
6.7 6.8 6.8 6.8 6.9 7.2 7.3 7.4 7.7 7.8 7.9 7.9 7.5 7.3 7.5 7.6 7.5 7.4 7.2 7.0 6.8 7.1 7.4 7.3 7.1 7.6 7.6 8.2 8.1 8.8 8.8 8.9 8.9 9.0 8.6 8.8 8.6 9.0 8.6 8.7 8.7 8.6 8.3 8.0 8.1
6.6 6.9 6.9 7.1 7.2 7.2 7.2 7.5 7.9 8.0 8.0 8.1 8.0 7.7 7.6 7.7 7.9 7.5 7.2 7.2 7.0 6.9 7.1 7.4 7.3 7.3 7.6 7.7 8.2 8.7 9.2 9.5 9.1 9.0 9.0 8.8 9.6 8.9 8.8 8.8 8.8 8.6 8.6 8.3 8.2
6.5 6.7 6.8 7.0 7.3 7.4 7.4 7.4 7.7 7.9 8.1 8.2 8.3 8.1 8.0 8.0 7.9 7.9 7.7 7.2 7.2 7.0 6.9 7.2 7.6 7.1 7.1 7.8 8.6 9.1 9.4 9.6 9.5 8.8 8.5 8.7 9.3 9.0 8.9 8.7 8.6 8.4 8.6 8.4 8.1
6.3 6.6 6.8 7.0 7.2 7.4 7.5 7.5 7.6 7.8 7.9 8.1 8.2 8.2 8.4 8.3 8.1 8.2 8.1 7.8 7.4 7.2 7.2 7.1 7.3 7.6 7.7 7.9 8.6 9.6 9.7 9.6 9.5 9.4 8.9 8.9 9.0 9.4 8.5 8.5 8.4 8.1 8.7 8.5 8.4
6.4 6.6 6.6 7.0 7.1 7.4 7.5 7.6 7.6 7.7 8.0 8.1 8.0 8.5 8.6 8.7 8.6 8.1 8.5 8.2 7.8 7.1 7.4 7.2 7.5 7.9 8.3 8.2 8.3 8.8 8.7 8.8 9.1 9.4 9.0 9.1 9.0 9.1 8.7 8.6 8.8 8.7 8.8 8.7 8.5
6.3 6.5 6.7 6.8 7.0 7.2 7.4 7.4 7.6 7.6 7.8 8.2 8.4 8.7 8.9 8.7 8.5 8.4 8.4 8.2 8.0 7.8 7.8 7.4 7.6 8.2 8.0 7.9 7.9 8.2 8.2 8.4 9.1 9.4 9.0 9.5 9.0 9.2 9.1 9.0 8.8 8.6 8.2 9.0 8.5
6.3 6.5 6.8 6.8 7.1 7.0 7.2 7.3 7.4 7.6 7.6 8.1 8.3 8.6 9.0 8.9 8.8 8.3 8.3 8.3 8.2 8.3 8.2 8.1 8.3 8.3 7.7 7.8 7.9 8.1 8.1 8.4 8.9 9.6 8.9 9.2 8.8 9.4 9.5 9.3 9.1 9.0 9.0 9.0 8.8
6.4 6.7 6.7 7.0 7.2 7.2 7.1 7.1 7.2 7.3 7.4 8.0 8.3 8.4 8.8 9.0 8.6 8.8 8.0 8.2 8.3 8.5 8.6 8.5 8.6 8.0 7.7 7.9 8.1 8.3 8.4 8.4 8.4 9.2 9.5 9.5 9.7 9.7 9.5 9.5 9.4 8.9 9.2 9.3 9.4
6.5 6.6 6.9 7.0 7.0 7.3 7.3 7.2 7.2 7.3 8.8 8.5 8.0 8.4 8.5 8.7 8.7 8.8 8.7 8.1 8.1 8.5 8.6 8.5 8.4 8.1 8.0 8.0 8.1 8.2 8.4 8.1 8.2 8.4 9.3 9.5 9.5 9.6 9.4 9.5 9.7 9.4 9.4 9.4 9.4
6.6 6.6 6.8 7.2 7.1 7.3 7.2 7.3 7.4 7.7 8.5 8.2 7.8 7.9 8.3 8.5 8.5 8.3 8.8 8.6 8.3 8.8 8.5 8.7 8.5 8.3 8.3 8.2 8.1 8.2 8.1 8.2 8.2 8.8 9.8 9.4 9.7 9.6 9.6 9.6 9.5 9.3 9.4 9.3 9.1
6.5 6.6 6.9 7.1 7.1 7.2 7.2 7.3 7.6 8.3 8.0 8.6 8.4 8.1 8.1 8.4 8.2 8.1 8.3 8.5 8.1 8.6 8.2 8.4 8.5 8.4 8.1 8.2 8.1 8.0 8.4 9.3 9.6 9.9 9.7 9.4 9.5 9.3 9.7 9.5 9.2 9.3 9.3 9.3 9.1
6.7 6.8 7.1 7.1 7.2 7.2 7.3 7.1 8.0 8.0 8.3 8.2 8.1 8.2 8.4 8.6 8.4 8.3 8.6 8.7 8.5 8.8 9.4 9.0 9.4 8.8 8.4 8.3 8.6 8.5 9.0 9.7 9.5 9.9 10.0 8.7 9.5 9.6 9.1 9.2 9.2 9.1 9.3 9.4 9.3
6.9 6.9 7.1 7.1 7.3 7.3 7.3 7.1 7.7 8.1 7.9 8.2 8.5 8.5 9.1 8.6 8.6 8.5 8.6 8.9 9.0 8.8 9.0 9.6 9.5 9.2 8.8 8.7 8.7 9.4 8.8 9.4 9.7 9.6 9.7 9.7 9.7 9.1 9.5 9.0 8.9 9.0 9.1 9.4 9.3
7.0 7.1 7.1 7.2 7.4 7.4 6.9 7.2 8.1 7.6 7.6 8.1 8.8 8.8 9.0 8.9 8.8 8.7 8.9 8.9 9.1 9.0 9.2 9.6 9.6 9.3 9.0 8.8 8.7 8.9 9.3 9.4 9.5 9.7 9.6 9.8 9.7 9.6 9.6 9.6 9.2 8.5 9.0 9.2 9.3
7.4 7.2 7.2 7.4 7.3 7.1 6.9 7.4 7.6 7.6 7.8 8.0 8.4 8.5 8.7 8.4 8.5 9.1 9.2 8.5 8.6 8.7 9.0 9.4 9.1 9.6 9.0 8.9 9.4 8.7 8.8 9.0 9.6 9.6 10.0 9.9 9.8 9.6 9.3 9.3 9.0 9.4 9.3 9.2 9.0
7.1 7.0 7.1 7.4 7.3 6.8 7.3 7.2 7.3 7.6 7.6 7.6 7.7 8.0 8.2 8.3 8.3 8.8 9.1 9.1 8.5 8.5 8.8 9.1 9.1 9.4 9.5 9.6 9.2 9.6 9.6 9.5 9.5 9.7 9.5 9.6 9.7 9.4 9.3 9.4 9.3 9.4 9.5 9.3 9.1
7.0 7.1 7.0 7.1 7.2 7.1 7.2 7.1 7.0 7.4 7.6 7.7 7.9 8.0 8.2 8.2 8.3 8.7 8.7 8.4 8.6 8.6 8.8 8.8 9.0 9.5 9.6 9.6 9.2 9.1 9.1 8.9 9.0 8.8 9.6 9.8 9.7 9.3 9.3 9.3 9.3 9.4 9.4 9.2 9.2
7.0 6.8 7.1 7.1 7.2 7.2 7.0 7.5 7.5 7.2 7.2 7.5 7.6 7.7 7.9 8.1 8.3 8.5 8.9 8.5 8.6 8.6 8.9 8.9 9.1 9.1 9.8 9.6 9.7 9.4 9.4 9.1 9.1 9.6 9.7 9.6 9.4 8.9 9.3 9.3 9.4 9.5 9.4 9.1 8.8
6.8 6.6 7.1 7.2 7.1 7.1 7.0 7.2 7.4 7.3 7.1 7.3 7.4 7.6 7.9 8.1 8.4 8.5 8.8 8.8 8.6 8.6 8.6 8.5 8.7 8.9 9.1 9.0 9.5 9.7 9.7 9.6 9.3 9.5 9.6 9.7 9.6 8.8 8.9 9.0 9.1 9.2 9.3 9.1 8.8
6.7 6.9 7.0 7.2 7.2 7.2 7.1 7.3 7.5 7.5 7.3 7.6 7.4 7.9 7.9 8.1 8.4 8.9 8.9 8.8 9.0 8.6 8.4 8.6 8.7 8.6 9.0 8.8 9.2 9.4 9.5 9.4 9.4 9.4 9.2 9.3 8.6 8.7 8.7 8.8 8.8 9.0 8.9 9.0 8.8
6.5 6.7 6.8 6.7 7.0 7.2 7.3 7.4 7.7 7.5 7.7 7.6 7.5 7.5 7.8 8.0 8.4 8.4 8.5 8.7 8.7 8.7 8.4 8.5 8.6 8.7 9.5 8.8 9.0 9.0 8.7 9.2 8.7 8.3 8.9 9.3 8.6 8.7 9.0 9.0 9.1 9.2 9.2 9.1 8.8
Wind_Speed
21 22 23 23 24 24 24 23 23 22 23 24 24 21 18 17 14 6 8 4 11 27 20 16 9 8 9 6 7 5 4 3 6 4 7 6 4 5 3 8 4 6 1 11 17
21 21 22 23 23 24 25 24 22 22 22 22 23 23 19 15 7 9 7 22 37 25 19 16 11 11 5 4 4 6 4 5 5 4 2 6 5 8 5 7 6 8 4 13 17
21 21 22 23 24 24 25 25 24 24 24 23 21 23 21 16 7 3 15 20 30 23 14 9 8 8 9 4 4 1 6 8 5 3 3 5 9 7 6 6 6 10 11 16 16
22 22 24 24 24 26 26 26 25 25 24 24 21 22 22 6 2 4 16 31 22 15 12 8 8 8 7 7 2 9 4 6 7 6 5 6 7 9 10 5 2 8 16 19 17
23 23 24 26 27 27 28 28 27 25 25 23 20 18 9 7 1 8 20 23 22 11 13 10 9 9 9 4 10 11 11 9 7 7 9 7 10 11 9 7 5 12 17 19 17
23 25 26 26 28 29 29 29 29 27 24 23 17 15 6 9 6 15 19 22 16 13 12 11 7 8 9 9 9 12 11 16 9 8 7 12 10 9 6 10 11 15 17 17 18
23 24 25 28 30 30 31 31 30 28 26 20 11 4 7 10 2 12 17 19 15 12 10 10 9 10 1 9 6 9 15 15 2 4 1 9 11 14 13 11 13 16 17 16 17
24 25 26 28 30 32 33 34 30 28 18 12 5 5 7 3 5 8 13 11 12 12 8 3 6 10 11 3 9 10 10 14 9 0 4 7 5 3 6 12 14 15 15 17 18
23 26 27 28 29 32 35 36 31 13 7 3 5 6 9 6 7 13 15 11 14 9 7 3 7 10 5 12 13 12 14 11 7 0 1 8 11 7 4 10 13 13 15 15 16
24 25 27 29 31 33 36 34 7 7 6 5 4 6 8 4 4 5 12 12 10 11 8 9 7 11 12 12 14 16 11 11 11 1 7 10 12 12 9 8 12 12 14 16 18
25 25 27 30 32 32 19 5 5 7 8 12 1 8 3 2 4 9 9 12 12 13 15 12 12 15 18 16 17 10 11 16 14 4 11 15 13 12 10 10 12 12 13 17 20
27 26 27 31 33 33 10 6 6 5 9 11 17 18 16 5 5 11 10 13 13 18 17 11 17 18 6 11 11 16 16 19 16 9 10 13 12 14 14 12 11 13 14 16 17
27 28 28 32 34 10 8 2 5 7 7 9 13 14 15 14 16 16 16 17 14 19 17 20 18 9 11 13 15 17 18 17 17 11 10 14 16 15 11 6 8 10 10 15 17
27 27 27 38 8 10 2 2 10 4 6 9 9 9 8 10 10 19 19 15 14 16 18 17 19 11 12 15 15 17 14 14 17 17 15 10 12 7 7 9 5 3 8 12 16
25 25 24 17 10 4 5 10 9 4 6 5 10 4 5 14 3 12 19 21 20 16 10 16 13 14 19 20 14 15 6 9 12 14 16 16 9 14 4 9 7 5 4 7 13
25 24 22 3 6 10 12 11 4 7 11 4 5 10 12 15 13 6 11 17 19 21 16 20 6 10 16 15 14 6 8 10 9 13 15 20 12 14 11 2 6 2 7 8 6
29 26 15 11 4 5 10 5 6 10 3 7 5 8 8 13 16 17 14 19 17 19 19 17 17 14 10 11 12 10 13 10 11 11 14 5 7 13 12 6 8 9 10 8 2
31 33 3 11 5 6 5 7 12 6 16 4 4 8 11 7 13 20 19 19 23 24 15 18 17 20 16 20 15 18 16 11 13 12 12 7 9 11 2 4 5 6 6 3 5
36 4 4 2 7 6 7 14 9 13 4 7 11 10 10 7 6 11 21 20 20 21 20 12 18 4 14 17 19 13 10 15 13 10 9 9 6 7 13 10 11 5 3 6 8
7 5 3 0 6 7 8 17 12 3 7 5 8 2 6 2 8 8 14 14 20 21 22 14 12 10 10 9 8 14 8 10 10 16 10 10 7 9 9 9 5 2 5 7 9
4 5 5 3 7 6 10 16 15 9 6 6 4 5 5 3 8 6 7 5 9 12 18 14 10 10 9 12 14 12 13 12 11 5 9 9 7 4 4 7 8 5 6 8 10
4 3 4 4 6 4 11 10 3 11 10 10 7 7 9 9 8 5 6 1 1 7 16 19 11 14 14 6 4 9 16 20 12 14 12 10 11 7 5 4 4 4 4 7 8
6 3 4 4 5 7 7 10 10 12 12 10 12 9 8 7 5 4 2 4 2 6 7 10 13 13 17 9 7 11 13 11 10 8 12 10 7 5 8 8 5 1 6 7 7
4 3 4 5 3 5 3 8 11 7 12 14 16 13 13 12 10 7 5 3 1 2 3 4 7 14 15 17 15 19 17 14 14 11 13 13 6 9 10 11 10 2 3 7 9
3 2 4 3 8 9 4 8 11 9 9 7 12 18 15 15 14 13 12 6 4 5 3 5 7 9 15 9 8 12 19 15 16 18 10 10 8 8 9 12 9 5 3 7 9
4 4 4 7 5 6 3 5 11 9 12 11 13 14 15 17 15 10 10 6 4 2 1 1 2 4 7 7 11 12 10 13 14 6 6 5 11 8 6 8 10 10 2 7 9
2 3 4 2 4 4 2 6 8 6 8 13 9 11 11 16 13 5 3 2 2 3 2 1 1 5 7 5 9 11 3 9 6 3 3 7 7 6 7 8 12 10 8 3 6
Wind_Direction
359 355 352 348 345 342 339 338 336 332 329 324 325 323 323 321 308 200 240 157 169 165 153 156 181 175 197 257 240 261 244 19 37 348 84 136 177 156 111 138 174 158 29 111 140
356 354 349 346 343 339 333 331 329 325 323 321 321 320 320 322 271 245 129 137 146 172 162 169 179 177 216 239 222 259 291 11 3 356 311 167 215 162 193 169 174 158 124 136 153
354 350 347 343 340 334 330 327 327 323 320 318 318 316 315 313 263 77 146 146 158 180 164 177 170 211 273 215 202 231 318 347 337 284 286 202 210 195 219 192 192 181 161 161 168
351 347 344 341 336 332 327 325 323 321 317 316 318 315 311 242 311 66 151 150 169 182 176 178 184 222 263 284 141 282 276 303 317 358 261 247 231 212 220 49 152 166 160 169 180
349 346 343 338 333 329 325 322 319 317 314 312 315 315 298 264 269 120 147 155 173 190 190 200 213 242 261 279 300 253 290 305 303 319 266 249 239 240 227 221 181 154 165 173 183
348 345 341 337 331 327 323 319 315 314 311 309 310 307 273 276 104 139 161 168 189 203 210 226 241 256 282 269 269 321 301 292 298 300 248 230 233 226 213 194 185 168 176 181 185
347 344 340 335 330 325 321 317 314 312 310 304 298 266 263 268 125 158 166 188 201 214 231 220 254 250 267 243 261 278 298 296 212 317 219 226 237 232 243 177 193 185 180 187 192
345 342 339 334 329 324 320 315 313 309 303 298 231 235 268 102 159 173 188 193 207 218 241 257 248 271 261 286 240 255 264 266 113 342 118 230 306 113 200 190 208 195 191 193 197
346 341 337 332 327 322 318 312 307 294 288 151 221 249 267 131 212 212 205 218 195 201 210 244 260 252 216 241 249 230 263 242 277 40 218 229 312 93 192 201 222 207 208 200 205
345 341 336 331 326 322 319 300 275 272 222 229 260 245 205 205 169 171 201 222 201 185 187 211 229 247 222 235 243 250 230 251 262 138 241 260 265 286 179 225 232 220 211 205 211
342 340 335 331 324 323 326 297 226 195 207 249 19 259 167 244 214 204 178 195 217 212 221 201 234 229 242 239 263 305 271 270 272 252 281 281 288 290 294 239 244 232 209 215 217
338 338 335 329 322 319 288 327 49 341 296 252 253 256 263 280 264 212 178 196 200 216 216 208 231 244 263 274 252 253 260 263 265 285 261 273 289 293 289 275 256 244 214 227 223
336 336 336 329 319 300 322 353 357 324 257 257 227 249 232 200 236 229 194 212 217 226 210 231 238 238 213 230 240 245 257 270 270 258 264 279 276 262 268 268 277 259 236 214 228
334 334 338 331 291 339 306 56 319 277 263 225 208 225 197 220 239 230 205 212 218 237 225 240 242 201 219 237 237 251 249 256 261 258 256 213 273 269 259 302 279 259 214 227 220
330 329 333 330 310 286 8 318 317 226 257 137 168 94 155 200 255 200 201 207 230 217 220 224 218 227 238 239 234 254 275 275 280 262 254 242 257 273 205 270 292 61 32 282 229
323 322 331 250 261 270 308 305 237 228 233 201 175 193 193 209 221 139 191 227 225 236 216 255 178 241 241 237 225 234 245 243 256 250 236 244 241 264 265 286 319 291 329 310 312
316 312 303 299 292 345 313 249 214 236 115 190 204 194 225 230 217 212 193 196 203 210 222 223 225 220 235 230 193 218 241 240 221 220 243 213 227 263 307 282 284 314 326 354 118
317 310 233 230 217 290 233 220 230 232 233 127 275 270 249 209 224 208 215 213 213 208 225 219 226 217 210 231 225 211 236 249 254 250 236 169 246 259 20 274 246 294 350 29 136
314 297 262 188 226 234 233 216 222 241 324 284 274 265 251 196 260 214 215 221 210 221 229 230 230 186 224 216 222 218 232 253 271 255 278 269 203 247 244 256 250 277 64 95 116
313 299 248 163 173 200 228 238 235 309 308 285 276 243 267 197 236 205 202 224 229 207 224 220 244 192 171 188 216 256 231 211 229 262 251 253 246 269 288 277 336 132 112 123 133
272 283 53 177 191 207 232 230 238 231 289 305 296 279 281 317 309 254 205 131 217 195 223 226 224 179 177 206 210 196 227 240 289 291 277 263 261 89 284 337 24 54 100 125 130
292 261 106 194 209 213 236 218 329 258 234 257 283 281 274 306 305 276 221 277 106 197 199 216 220 236 205 186 287 236 222 215 228 214 240 283 282 16 34 17 38 87 117 123 133
305 282 159 274 239 212 213 246 247 257 242 246 245 252 278 288 293 258 252 92 59 205 192 174 224 227 238 198 204 232 230 239 244 281 261 263 238 80 42 41 50 67 147 152 145
284 247 152 215 275 297 255 232 238 221 260 258 257 255 256 264 245 280 260 147 352 62 46 210 237 234 236 232 215 204 226 217 223 226 232 221 173 47 19 22 33 30 190 177 183
230 45 0 197 219 250 273 303 276 260 228 250 239 238 242 246 255 248 254 247 181 150 178 201 243 232 255 272 258 217 217 205 215 233 261 252 132 37 2 6 21 44 157 188 200
305 336 337 284 282 248 184 256 281 279 243 240 232 260 221 234 238 266 246 249 315 136 148 192 244 249 218 232 224 220 236 196 209 221 228 216 114 36 17 11 36 44 107 195 217
356 256 280 220 225 245 238 292 307 303 257 250 279 277 239 225 230 290 302 339 10 333 348 316 296 230 199 209 172 174 162 194 144 171 278 201 60 5 25 24 32 29 27 322 233